This is the latest recevied weather packets stored in our database for station/object K0KDS. If no packets are shown the sender has not sent any weather packets the latest 10 day(s).
| Time | Temp. | Humidity | Pressure | Rain* | Wind** | Luminosity | Snow |
|---|---|---|---|---|---|---|---|
| 1777310242 | 20.56° C | 73% | 998 hPa | 0 mm | - | - | - |
| 1777309342 | 20.56° C | 73% | 998 hPa | 0 mm | - | - | - |
| 1777308442 | 20.56° C | 71% | 998 hPa | 0 mm | - | - | - |
| 1777307542 | 21.11° C | 76% | 998 hPa | 0 mm | - | - | - |
| 1777306642 | 20° C | 78% | 998.1 hPa | 0 mm | - | - | - |
| 1777305742 | 19.44° C | 78% | 998.1 hPa | 0 mm | - | - | - |
| 1777304842 | 18.89° C | 80% | 998 hPa | 0 mm | - | - | - |
| 1777303942 | 18.33° C | 82% | 997.7 hPa | 0 mm | - | - | - |
| 1777303042 | 18.33° C | 84% | 997.4 hPa | 0 mm | - | - | - |
| 1777302142 | 17.78° C | 87% | 997.4 hPa | 0 mm | - | - | - |
| 1777301242 | 16.67° C | 90% | 996.7 hPa | 0 mm | - | - | - |
| 1777300342 | 16.11° C | 90% | 996.8 hPa | 0 mm | - | - | - |
| 1777299442 | 15.56° C | 94% | 996.9 hPa | 0 mm | - | - | - |
| 1777298542 | 15° C | 95% | 997.5 hPa | 0 mm | - | - | - |
| 1777297642 | 14.44° C | 97% | 998 hPa | 0 mm | - | - | - |
| 1777296741 | 14.44° C | 97% | 996 hPa | 0 mm | - | - | - |
| 1777295842 | 13.89° C | 97% | 992.6 hPa | 0 mm | - | - | - |
| 1777294942 | 14.44° C | 97% | 994.3 hPa | 0 mm | - | - | - |
| 1777294042 | 14.44° C | 97% | 998.8 hPa | 0 mm | - | - | - |
| 1777293141 | 14.44° C | 97% | 999.6 hPa | 0 mm | - | - | - |
| 1777292242 | 14.44° C | 97% | 999.6 hPa | 0 mm | - | - | - |
| 1777291342 | 14.44° C | 97% | 999.4 hPa | 2.54 mm | - | - | - |
| 1777290442 | 14.44° C | 97% | 998.4 hPa | 2.54 mm | - | - | - |
| 1777289542 | 15° C | 97% | 997.7 hPa | 2.54 mm | - | - | - |
| 1777288642 | 15° C | 97% | 999.4 hPa | 2.54 mm | - | - | - |
* Rain latest hour (hover to see other rain measurements)
** Current wind speed in m/s (hover to see current wind gust speed)